Tracking 34717 objects as of 14-Jul-2026
HD Live streaming from Space Station
objects crossing your sky now

CZ-4 DEB

Track CZ-4 DEB now!
10-day predictions


NORAD ID: 23261
Int'l Code: 1990-081CS
Perigee: 645.5 km
Apogee: 666.6 km
Inclination: 98.2 °
Period: 97.7 minutes
Semi major axis: 7027 km
RCS: 0.0028 m2 (small)
Launch date: September 3, 1990
Source: People's Republic of China (PRC)
Launch site: Taiyaun Space Center, China (TSC)

Note: This is SATELLITE DEBRIS
Your satellite tracking list
Your tracking list is empty




NASA's NSSDC Master Catalog

Two Line Element Set (TLE):
1 23261U 90081CS  26194.04412729  .00004727  00000-0  72883-3 0  9994
2 23261  98.2343 224.2722 0015022 211.3970 178.4955 14.73810752846442
Source of the keplerian elements: AFSPC